Powrót do katalogu

LMRST-SAT

AktywnyNaukaLEO
NORAD 40971·PAYLOAD·🇺🇸 United States

Wystrzelony Oct 8, 2015 z Vandenberg Space Force Base

Loading…

Następne Przeloty (najbliższe 24 godziny)

TLE

ŚwieżeSource: Space-Track

Epoka: Sep 13, 2026, 17:20 UTC

1 40971U 15058H   26256.72255058  .00001303  00000-0  12463-3 0  9991
2 40971  64.7765   0.2513 0139493  25.3543 335.4327 14.90984330126759

Śledź LMRST-SAT w czasie rzeczywistym z AllMySat

Download on the App Store